,,,PA_Meas_PMT16A,,PR_Meas_QMR101_102,,RH_Meas_QMH101,,SR_Meas_QMS101,,TA_Meas_QMH101,,GenWind,,GenWind,
date,time,status,PA,status,PR,status,RH,status,SR,status,TA,status,DirAvg,status,SpdAvg,
2013-01-21, 00:00:04,VALID,1011.43,VALID,0,VALID,101.689,VALID,0,VALID,24.3371,VALID,4,VALID,0,
2013-01-21, 00:01:04,VALID,1011.45,VALID,0,VALID,101.941,VALID,0,VALID,24.3566,VALID,3,VALID,0,
2013-01-21, 00:02:04,VALID,1011.46,VALID,0,VALID,102.04,VALID,0,VALID,24.3761,VALID,3,VALID,0,
2013-01-21, 00:03:04,VALID,1011.48,VALID,0,VALID,101.804,VALID,0,VALID,24.3761,VALID,3,VALID,0.146484,
2013-01-21, 00:04:04,VALID,1011.52,VALID,0,VALID,101.468,VALID,0,VALID,24.3761,VALID,3,VALID,0.204688,
2013-01-21, 00:05:04,VALID,1011.54,VALID,0,VALID,101.628,VALID,0,VALID,24.3956,VALID,3,VALID,0.240625,
2013-01-21, 00:06:04,VALID,1011.55,VALID,0,VALID,101.72,VALID,0,VALID,24.3956,VALID,3,VALID,0.230469,
2013-01-21, 00:07:04,VALID,1011.52,VALID,0,VALID,101.964,VALID,0,VALID,24.415,VALID,4,VALID,0.142969,
2013-01-21, 00:08:04,VALID,1011.5,VALID,0,VALID,102.139,VALID,0,VALID,24.4735,VALID,3,VALID,0,
2013-01-21, 00:09:04,VALID,1011.52,VALID,0,VALID,102.2,VALID,0,VALID,24.493,VALID,3,VALID,0.00234375,
2013-01-21, 00:10:04,VALID,1011.5,VALID,0,VALID,101.781,VALID,0,VALID,24.493,VALID,4,VALID,0.212891,
2013-01-21, 00:11:04,VALID,1011.47,VALID,0,VALID,101.43,VALID,0,VALID,24.5125,VALID,3,VALID,0.433203,
2013-01-21, 00:12:04,VALID,1011.46,VALID,0,VALID,100.919,VALID,0,VALID,24.5125,VALID,3,VALID,0.266016,
2013-01-21, 00:13:04,VALID,1011.45,VALID,0,VALID,100.744,VALID,0,VALID,24.532,VALID,4,VALID,0.402734,
2013-01-21, 00:14:04,VALID,1011.44,VALID,0,VALID,100.721,VALID,0,VALID,24.532,VALID,3,VALID,0.337891,
2013-01-21, 00:15:04,VALID,1011.46,VALID,0,VALID,100.919,VALID,0,VALID,24.532,VALID,3,VALID,0.29375,
2013-01-21, 00:16:04,VALID,1011.44,VALID,0,VALID,100.797,VALID,0,VALID,24.5125,VALID,3,VALID,0.265234,
2013-01-21, 00:17:04,VALID,1011.43,VALID,0,VALID,100.927,VALID,0,VALID,24.493,VALID,3,VALID,0.276172,
2013-01-21, 00:18:04,VALID,1011.41,VALID,0,VALID,101.209,VALID,0,VALID,24.4754,VALID,3,VALID,0.179297,
2013-01-21, 00:19:04,VALID,1011.4,VALID,0,VALID,101.56,VALID,0,VALID,24.4735,VALID,4,VALID,0.271484,
2013-01-21, 00:20:04,VALID,1011.37,VALID,0,VALID,101.499,VALID,0,VALID,24.4327,VALID,4,VALID,0.33125,
2013-01-21, 00:21:04,VALID,1011.37,VALID,0,VALID,101.499,VALID,0,VALID,24.4345,VALID,3,VALID,0.241016,
2013-01-21, 00:22:04,VALID,1011.35,VALID,0,VALID,101.262,VALID,0,VALID,24.4345,VALID,3,VALID,0.310156,
2013-01-21, 00:23:04,VALID,1011.34,VALID,0,VALID,101.056,VALID,0,VALID,24.4345,VALID,3,VALID,0.107031,
2013-01-21, 00:24:04,VALID,1011.33,VALID,0,VALID,101.476,VALID,0,VALID,24.4735,VALID,4,VALID,0.435937,
2013-01-21, 00:25:04,VALID,1011.29,VALID,0,VALID,101.651,VALID,0,VALID,24.493,VALID,3,VALID,0.564844,
2013-01-21, 00:26:04,VALID,1011.3,VALID,0,VALID,101.705,VALID,0,VALID,24.493,VALID,4,VALID,0.483203,
2013-01-21, 00:27:04,VALID,1011.24,VALID,0,VALID,101.994,VALID,0,VALID,24.493,VALID,4,VALID,0.567969,
2013-01-21, 00:28:04,VALID,1011.25,VALID,0,VALID,101.522,VALID,0,VALID,24.454,VALID,4,VALID,0.724219,
2013-01-21, 00:29:04,VALID,1011.19,VALID,0,VALID,101.682,VALID,0,VALID,24.4949,VALID,4,VALID,0.621094,
2013-01-21, 00:30:04,VALID,1011.16,VALID,0,VALID,101.453,VALID,0,VALID,24.4754,VALID,4,VALID,0.567578,
2013-01-21, 00:31:04,VALID,1011.14,VALID,0,VALID,101.14,VALID,0,VALID,24.454,VALID,3,VALID,0.653516,
2013-01-21, 00:32:04,VALID,1011.12,VALID,0,VALID,100.942,VALID,0.112112,VALID,24.4522,VALID,3,VALID,0.580078,
2013-01-21, 00:33:04,VALID,1011.07,VALID,0,VALID,100.172,VALID,0,VALID,24.4327,VALID,3,VALID,0.576172,
2013-01-21, 00:34:04,VALID,1011.07,VALID,0,VALID,99.3178,VALID,0.112112,VALID,24.4327,VALID,3,VALID,0.486328,
2013-01-21, 00:35:04,VALID,1011.05,VALID,0,VALID,99.1882,VALID,0.112112,VALID,24.454,VALID,4,VALID,0.386719,
2013-01-21, 00:36:04,VALID,1011.01,VALID,0,VALID,99.8592,VALID,0.112112,VALID,24.4132,VALID,4,VALID,0.426172,
2013-01-21, 00:37:04,VALID,1011,VALID,0,VALID,100.851,VALID,0,VALID,24.4132,VALID,4,VALID,0,
2013-01-21, 00:38:04,VALID,1011.02,VALID,0,VALID,101.323,VALID,0.112112,VALID,24.3742,VALID,4,VALID,0.225,
2013-01-21, 00:39:04,VALID,1011.01,VALID,0,VALID,101.552,VALID,0.112112,VALID,24.3937,VALID,4,VALID,0.270312,
2013-01-21, 00:40:04,VALID,1010.99,VALID,0,VALID,101.85,VALID,0,VALID,24.3761,VALID,4,VALID,0.247266,
2013-01-21, 00:41:04,VALID,1011,VALID,0,VALID,102.078,VALID,0.112112,VALID,24.3547,VALID,3,VALID,0.176172,
2013-01-21, 00:42:04,VALID,1010.95,VALID,0,VALID,102.315,VALID,0.112112,VALID,24.3352,VALID,4,VALID,0.402734,
2013-01-21, 00:43:04,VALID,1010.94,VALID,0,VALID,102.673,VALID,0,VALID,24.3352,VALID,3,VALID,0.473828,
2013-01-21, 00:44:04,VALID,1010.92,VALID,0,VALID,102.887,VALID,0,VALID,24.3158,VALID,3,VALID,0.718359,
2013-01-21, 00:45:04,VALID,1010.86,VALID,0,VALID,102.917,VALID,0.112112,VALID,24.2768,VALID,5,VALID,0.634766,
2013-01-21, 00:46:04,VALID,1010.84,VALID,0,VALID,103.184,VALID,0.112112,VALID,24.2768,VALID,68,VALID,1.06523,
2013-01-21, 00:47:04,VALID,1010.81,VALID,0,VALID,103.451,VALID,0,VALID,24.2396,VALID,50,VALID,0.756641,
2013-01-21, 00:48:04,VALID,1010.78,VALID,0,VALID,103.337,VALID,0,VALID,24.2007,VALID,41,VALID,0.883203,
2013-01-21, 00:49:04,VALID,1010.73,VALID,0,VALID,103.367,VALID,0,VALID,24.1617,VALID,27,VALID,0.744141,
2013-01-21, 00:50:04,VALID,1010.68,VALID,0,VALID,103.55,VALID,0,VALID,24.1227,VALID,29,VALID,0.369141,
2013-01-21, 00:51:04,VALID,1010.67,VALID,0,VALID,103.695,VALID,0,VALID,24.1245,VALID,29,VALID,0.416016,
2013-01-21, 00:52:04,VALID,1010.62,VALID,0,VALID,103.809,VALID,0,VALID,24.0837,VALID,29,VALID,0.613672,
2013-01-21, 00:53:04,VALID,1010.63,VALID,0,VALID,103.825,VALID,0,VALID,24.0643,VALID,29,VALID,0.724609,
2013-01-21, 00:54:04,VALID,1010.61,VALID,0,VALID,104,VALID,0,VALID,24.0837,VALID,86,VALID,0.714844,
2013-01-21, 00:55:04,VALID,1010.59,VALID,0,VALID,104,VALID,0,VALID,24.0643,VALID,97,VALID,0.899609,
2013-01-21, 00:56:04,VALID,1010.58,VALID,0,VALID,104,VALID,0,VALID,24.0661,VALID,68,VALID,1.0875,
2013-01-21, 00:57:04,VALID,1010.57,VALID,0,VALID,104,VALID,0,VALID,24.0253,VALID,73,VALID,0.923437,
2013-01-21, 00:58:04,VALID,1010.52,VALID,0,VALID,104,VALID,0,VALID,24.0448,VALID,65,VALID,0.913672,
2013-01-21, 00:59:04,VALID,1010.53,VALID,0,VALID,104,VALID,0,VALID,24.0856,VALID,56,VALID,1.13633,
2013-01-21, 01:00:04,VALID,1010.49,VALID,0,VALID,103.985,VALID,0,VALID,24.0448,VALID,66,VALID,1.38398,
2013-01-21, 01:01:04,VALID,1010.48,VALID,0,VALID,103.901,VALID,0,VALID,24.0448,VALID,65,VALID,1.45469,
2013-01-21, 01:02:04,VALID,1010.46,VALID,0,VALID,103.886,VALID,0,VALID,24.0448,VALID,60,VALID,0.673437,
2013-01-21, 01:03:04,VALID,1010.46,VALID,0,VALID,103.87,VALID,0,VALID,24.0643,VALID,76,VALID,0.980078,
2013-01-21, 01:04:04,VALID,1010.44,VALID,0,VALID,103.832,VALID,0,VALID,24.0837,VALID,56,VALID,0.6625,
2013-01-21, 01:05:04,VALID,1010.43,VALID,0,VALID,103.733,VALID,0,VALID,24.0837,VALID,58,VALID,0.670313,
2013-01-21, 01:06:04,VALID,1010.43,VALID,0,VALID,103.581,VALID,0,VALID,24.0643,VALID,66,VALID,1.05078,
2013-01-21, 01:07:04,VALID,1010.43,VALID,0,VALID,103.542,VALID,0,VALID,24.0643,VALID,74,VALID,1.20664,
2013-01-21, 01:08:04,VALID,1010.43,VALID,0,VALID,103.626,VALID,0,VALID,24.0643,VALID,78,VALID,1.04531,
2013-01-21, 01:09:04,VALID,1010.42,VALID,0,VALID,103.642,VALID,0,VALID,24.0837,VALID,76,VALID,0.95625,
2013-01-21, 01:10:04,VALID,1010.45,VALID,0,VALID,103.726,VALID,0,VALID,24.0837,VALID,81,VALID,1.06914,
2013-01-21, 01:11:04,VALID,1010.43,VALID,0,VALID,103.939,VALID,0,VALID,24.0643,VALID,83,VALID,0.742578,
2013-01-21, 01:12:04,VALID,1010.44,VALID,0,VALID,104,VALID,0,VALID,24.0837,VALID,49,VALID,0.492969,
2013-01-21, 01:13:04,VALID,1010.44,VALID,0,VALID,104,VALID,0,VALID,24.0643,VALID,52,VALID,0.387891,
2013-01-21, 01:14:04,VALID,1010.43,VALID,0,VALID,103.817,VALID,0,VALID,24.0448,VALID,56,VALID,0.914453,
2013-01-21, 01:15:04,VALID,1010.4,VALID,0,VALID,103.825,VALID,0,VALID,24.0448,VALID,46,VALID,0.215234,
2013-01-21, 01:16:04,VALID,1010.39,VALID,0,VALID,103.924,VALID,0,VALID,24.0235,VALID,44,VALID,0.505078,
2013-01-21, 01:17:04,VALID,1010.4,VALID,0,VALID,103.764,VALID,0,VALID,24.0058,VALID,26,VALID,0.904688,
2013-01-21, 01:18:04,VALID,1010.4,VALID,0,VALID,103.909,VALID,0,VALID,24.0058,VALID,26,VALID,0.498828,
2013-01-21, 01:19:04,VALID,1010.39,VALID,0,VALID,104,VALID,0,VALID,23.9845,VALID,26,VALID,0.335156,
2013-01-21, 01:20:04,VALID,1010.37,VALID,0,VALID,104,VALID,0,VALID,23.9863,VALID,26,VALID,0.60625,
2013-01-21, 01:21:04,VALID,1010.38,VALID,0,VALID,104,VALID,0,VALID,23.9863,VALID,26,VALID,0.194922,
2013-01-21, 01:22:04,VALID,1010.38,VALID,0,VALID,104,VALID,0,VALID,24.0058,VALID,26,VALID,0,
2013-01-21, 01:23:04,VALID,1010.38,VALID,0,VALID,104,VALID,0,VALID,24.0253,VALID,26,VALID,0.137109,
2013-01-21, 01:24:04,VALID,1010.39,VALID,0,VALID,104,VALID,0,VALID,24.0058,VALID,26,VALID,0.466797,
2013-01-21, 01:25:04,VALID,1010.36,VALID,0,VALID,104,VALID,0,VALID,23.9863,VALID,26,VALID,0.251172,
2013-01-21, 01:26:04,VALID,1010.31,VALID,0,VALID,104,VALID,0,VALID,24.0058,VALID,26,VALID,0,
2013-01-21, 01:27:04,VALID,1010.27,VALID,0,VALID,104,VALID,0,VALID,24.0058,VALID,26,VALID,0.149219,
2013-01-21, 01:28:04,VALID,1010.28,VALID,0,VALID,104,VALID,0,VALID,24.0058,VALID,26,VALID,0.00507812,
2013-01-21, 01:29:04,VALID,1010.23,VALID,0,VALID,104,VALID,0,VALID,24.004,VALID,26,VALID,0.021875,
2013-01-21, 01:30:04,VALID,1010.24,VALID,0,VALID,104,VALID,0,VALID,24.0253,VALID,26,VALID,0.248047,
2013-01-21, 01:31:04,VALID,1010.22,VALID,0,VALID,104,VALID,0,VALID,24.0058,VALID,26,VALID,0.00703125,
2013-01-21, 01:32:04,VALID,1010.22,VALID,0,VALID,104,VALID,0,VALID,24.0253,VALID,26,VALID,0.133594,
2013-01-21, 01:33:04,VALID,1010.22,VALID,0,VALID,104,VALID,0,VALID,24.0253,VALID,26,VALID,0.148438,
2013-01-21, 01:34:04,VALID,1010.19,VALID,0,VALID,104,VALID,0,VALID,24.0448,VALID,26,VALID,0,
2013-01-21, 01:35:04,VALID,1010.18,VALID,0,VALID,104,VALID,0,VALID,24.0624,VALID,26,VALID,0,
2013-01-21, 01:36:04,VALID,1010.15,VALID,0,VALID,104,VALID,0.112112,VALID,24.0624,VALID,26,VALID,0.354297,
2013-01-21, 01:37:04,VALID,1010.12,VALID,0,VALID,103.924,VALID,0,VALID,24.0837,VALID,26,VALID,0.551562,
2013-01-21, 01:38:04,VALID,1010.09,VALID,0,VALID,103.741,VALID,0,VALID,24.0429,VALID,26,VALID,0.371484,
2013-01-21, 01:39:04,VALID,1010.05,VALID,0,VALID,103.718,VALID,0,VALID,24.0661,VALID,26,VALID,0.665234,
2013-01-21, 01:40:04,VALID,1010.03,VALID,0,VALID,103.825,VALID,0,VALID,24.0448,VALID,26,VALID,0.537109,
2013-01-21, 01:41:04,VALID,1010.01,VALID,0,VALID,104,VALID,0,VALID,24.0643,VALID,26,VALID,0.432813,
2013-01-21, 01:42:04,VALID,1010,VALID,0,VALID,104,VALID,0,VALID,24.0448,VALID,46,VALID,0.637891,
2013-01-21, 01:43:04,VALID,1009.98,VALID,0,VALID,103.855,VALID,0,VALID,24.0253,VALID,72,VALID,1.02578,
2013-01-21, 01:44:04,VALID,1009.95,VALID,0,VALID,103.695,VALID,0,VALID,24.0661,VALID,79,VALID,0.907812,
2013-01-21, 01:45:04,VALID,1009.95,VALID,0,VALID,103.687,VALID,0,VALID,24.0253,VALID,62,VALID,0.660547,
2013-01-21, 01:46:04,VALID,1009.92,VALID,0,VALID,103.68,VALID,0,VALID,24.0058,VALID,79,VALID,0.498437,
2013-01-21, 01:47:04,VALID,1009.92,VALID,0,VALID,103.764,VALID,0.112112,VALID,24.0235,VALID,79,VALID,0.51875,
2013-01-21, 01:48:04,VALID,1009.91,VALID,0,VALID,103.878,VALID,0.112112,VALID,24.0216,VALID,81,VALID,0.520703,
2013-01-21, 01:49:04,VALID,1009.87,VALID,0,VALID,103.848,VALID,0.112112,VALID,24.0429,VALID,116,VALID,0.839453,
2013-01-21, 01:50:04,VALID,1009.86,VALID,0,VALID,103.848,VALID,0.112112,VALID,24.0624,VALID,152,VALID,0.682813,
2013-01-21, 01:51:04,VALID,1009.82,VALID,0,VALID,103.756,VALID,0.112112,VALID,24.0429,VALID,132,VALID,1.13906,
2013-01-21, 01:52:04,VALID,1009.8,VALID,0,VALID,103.771,VALID,0.112112,VALID,24.0429,VALID,116,VALID,1.13633,
2013-01-21, 01:53:04,VALID,1009.77,VALID,0,VALID,103.97,VALID,0.112112,VALID,24.0429,VALID,93,VALID,0.783203,
2013-01-21, 01:54:04,VALID,1009.74,VALID,0,VALID,103.863,VALID,0.112112,VALID,24.0235,VALID,84,VALID,0.607031,
2013-01-21, 01:55:04,VALID,1009.69,VALID,0,VALID,103.901,VALID,0.112112,VALID,23.9845,VALID,103,VALID,1.06875,
2013-01-21, 01:56:04,VALID,1009.7,VALID,0,VALID,103.985,VALID,0.112112,VALID,23.9455,VALID,86,VALID,0.896875,
2013-01-21, 01:57:04,VALID,1009.73,VALID,0,VALID,104,VALID,0.112112,VALID,23.965,VALID,62,VALID,0.496484,
2013-01-21, 01:58:04,VALID,1009.71,VALID,0,VALID,104,VALID,0.112112,VALID,23.9668,VALID,59,VALID,0.621484,
2013-01-21, 01:59:04,VALID,1009.71,VALID,0,VALID,104,VALID,0.112112,VALID,23.926,VALID,33,VALID,0.885156,
2013-01-21, 02:00:04,VALID,1009.74,VALID,0,VALID,104,VALID,0.112112,VALID,23.926,VALID,33,VALID,0.542188,
2013-01-21, 02:01:04,VALID,1009.75,VALID,0,VALID,104,VALID,0,VALID,23.9065,VALID,33,VALID,0.340234,
2013-01-21, 02:02:04,VALID,1009.77,VALID,0,VALID,104,VALID,0,VALID,23.9065,VALID,33,VALID,0.485547,
2013-01-21, 02:03:04,VALID,1009.76,VALID,0,VALID,104,VALID,0,VALID,23.9278,VALID,33,VALID,0.432422,
2013-01-21, 02:04:04,VALID,1009.77,VALID,0,VALID,104,VALID,0,VALID,23.9084,VALID,33,VALID,0.35,
2013-01-21, 02:05:04,VALID,1009.76,VALID,0,VALID,104,VALID,0,VALID,23.9084,VALID,86,VALID,0.742969,
2013-01-21, 02:06:04,VALID,1009.77,VALID,0,VALID,104,VALID,0,VALID,23.8889,VALID,87,VALID,0.281641,
2013-01-21, 02:07:04,VALID,1009.79,VALID,0,VALID,104,VALID,0,VALID,23.8676,VALID,86,VALID,0.621484,
2013-01-21, 02:08:04,VALID,1009.8,VALID,0,VALID,104,VALID,0,VALID,23.8694,VALID,86,VALID,0.549219,
2013-01-21, 02:09:04,VALID,1009.79,VALID,0,VALID,104,VALID,0,VALID,23.8889,VALID,62,VALID,0.671484,
2013-01-21, 02:10:04,VALID,1009.79,VALID,0,VALID,104,VALID,0,VALID,23.8694,VALID,62,VALID,0.783203,
2013-01-21, 02:11:04,VALID,1009.79,VALID,0,VALID,104,VALID,0,VALID,23.8889,VALID,62,VALID,0.309766,
2013-01-21, 02:12:04,VALID,1009.78,VALID,0,VALID,104,VALID,0,VALID,23.8889,VALID,98,VALID,0.639844,
2013-01-21, 02:13:04,VALID,1009.79,VALID,0,VALID,104,VALID,0,VALID,23.9084,VALID,107,VALID,0.491406,
2013-01-21, 02:14:04,VALID,1009.8,VALID,0,VALID,104,VALID,0,VALID,23.9084,VALID,120,VALID,0.678125,
2013-01-21, 02:15:04,VALID,1009.82,VALID,0,VALID,104,VALID,0,VALID,23.9065,VALID,119,VALID,0.949609,
2013-01-21, 02:16:04,VALID,1009.83,VALID,0,VALID,104,VALID,0,VALID,23.9084,VALID,131,VALID,0.927344,
2013-01-21, 02:17:04,VALID,1009.85,VALID,0,VALID,104,VALID,0,VALID,23.9084,VALID,121,VALID,0.988281,
2013-01-21, 02:18:04,VALID,1009.87,VALID,0,VALID,104,VALID,0,VALID,23.9278,VALID,119,VALID,0.614062,
2013-01-21, 02:19:04,VALID,1009.91,VALID,0,VALID,104,VALID,0.112112,VALID,23.8889,VALID,116,VALID,0.850781,
2013-01-21, 02:20:04,VALID,1009.94,VALID,0,VALID,104,VALID,0,VALID,23.8694,VALID,114,VALID,0.467969,
2013-01-21, 02:21:04,VALID,1009.98,VALID,0,VALID,104,VALID,0,VALID,23.8676,VALID,114,VALID,0.284375,
2013-01-21, 02:22:04,VALID,1010.01,VALID,0,VALID,104,VALID,0,VALID,23.9084,VALID,114,VALID,0.489844,
2013-01-21, 02:23:04,VALID,1010.04,VALID,0,VALID,104,VALID,0,VALID,23.9084,VALID,63,VALID,0.781641,
2013-01-21, 02:24:04,VALID,1010.04,VALID,0,VALID,104,VALID,0.112112,VALID,23.8871,VALID,45,VALID,0.672266,
2013-01-21, 02:25:04,VALID,1010.06,VALID,0,VALID,104,VALID,0,VALID,23.9084,VALID,46,VALID,0.328516,
2013-01-21, 02:26:04,VALID,1010.05,VALID,0,VALID,104,VALID,0,VALID,23.9278,VALID,45,VALID,0.333984,
2013-01-21, 02:27:04,VALID,1010.06,VALID,0,VALID,104,VALID,0,VALID,23.9278,VALID,46,VALID,0.351953,
2013-01-21, 02:28:04,VALID,1010.07,VALID,0,VALID,104,VALID,0,VALID,23.9278,VALID,46,VALID,0.226953,
2013-01-21, 02:29:04,VALID,1010.08,VALID,0,VALID,104,VALID,0,VALID,23.9473,VALID,46,VALID,0.0140625,
2013-01-21, 02:30:04,VALID,1010.1,VALID,0,VALID,104,VALID,0,VALID,23.9473,VALID,46,VALID,0.286719,
2013-01-21, 02:31:04,VALID,1010.11,VALID,0,VALID,104,VALID,0,VALID,23.9084,VALID,46,VALID,0.251563,
2013-01-21, 02:32:04,VALID,1010.12,VALID,0,VALID,104,VALID,0,VALID,23.9278,VALID,47,VALID,0.559375,
2013-01-21, 02:33:04,VALID,1010.16,VALID,0,VALID,104,VALID,0,VALID,23.9278,VALID,49,VALID,0.2875,
2013-01-21, 02:34:04,VALID,1010.19,VALID,0,VALID,104,VALID,0,VALID,23.9278,VALID,49,VALID,0.248047,
2013-01-21, 02:35:04,VALID,1010.19,VALID,0,VALID,104,VALID,0,VALID,23.9863,VALID,49,VALID,0.238672,
2013-01-21, 02:36:04,VALID,1010.22,VALID,0,VALID,104,VALID,0,VALID,23.9455,VALID,69,VALID,0.908594,
2013-01-21, 02:37:04,VALID,1010.23,VALID,0,VALID,104,VALID,0,VALID,23.9278,VALID,83,VALID,0.896875,
2013-01-21, 02:38:04,VALID,1010.2,VALID,0,VALID,104,VALID,0,VALID,23.9473,VALID,80,VALID,1.06602,
2013-01-21, 02:39:04,VALID,1010.2,VALID,0,VALID,103.939,VALID,0,VALID,23.9863,VALID,97,VALID,0.891016,
2013-01-21, 02:40:04,VALID,1010.21,VALID,0,VALID,104,VALID,0,VALID,23.9863,VALID,103,VALID,1.0543,
2013-01-21, 02:41:04,VALID,1010.24,VALID,0,VALID,103.687,VALID,0,VALID,24.0058,VALID,93,VALID,1.16875,
2013-01-21, 02:42:04,VALID,1010.26,VALID,0,VALID,103.733,VALID,0,VALID,24.0448,VALID,98,VALID,0.596875,
2013-01-21, 02:43:04,VALID,1010.25,VALID,0,VALID,103.619,VALID,0,VALID,24.0837,VALID,88,VALID,0.903516,
2013-01-21, 02:44:04,VALID,1010.25,VALID,0,VALID,103.71,VALID,0,VALID,24.0643,VALID,97,VALID,1.14727,
2013-01-21, 02:45:04,VALID,1010.26,VALID,0,VALID,103.596,VALID,0,VALID,24.0235,VALID,92,VALID,1.24336,
2013-01-21, 02:46:04,VALID,1010.25,VALID,0,VALID,103.413,VALID,0,VALID,24.004,VALID,94,VALID,2.19922,
2013-01-21, 02:47:04,VALID,1010.26,VALID,0,VALID,103.535,VALID,0,VALID,24.004,VALID,88,VALID,1.67539,
2013-01-21, 02:48:04,VALID,1010.2,VALID,0,VALID,103.535,VALID,0,VALID,24.004,VALID,108,VALID,2.21523,
2013-01-21, 02:49:04,VALID,1010.18,VALID,0,VALID,103.619,VALID,0,VALID,24.004,VALID,100,VALID,1.02695,
2013-01-21, 02:50:04,VALID,1010.14,VALID,0,VALID,103.733,VALID,0,VALID,24.0253,VALID,86,VALID,0.966016,
2013-01-21, 02:51:04,VALID,1010.13,VALID,0,VALID,103.497,VALID,0,VALID,24.0448,VALID,72,VALID,1.23789,
2013-01-21, 02:52:04,VALID,1010.14,VALID,0,VALID,103.634,VALID,0,VALID,24.0643,VALID,105,VALID,1.31797,
2013-01-21, 02:53:04,VALID,1010.15,VALID,0,VALID,103.436,VALID,0,VALID,24.0429,VALID,106,VALID,2.41758,
2013-01-21, 02:54:04,VALID,1010.15,VALID,0,VALID,103.436,VALID,0,VALID,24.1032,VALID,101,VALID,0.771875,
2013-01-21, 02:55:04,VALID,1010.16,VALID,0,VALID,103.276,VALID,0,VALID,24.0819,VALID,104,VALID,0.95,
2013-01-21, 02:56:04,VALID,1010.15,VALID,0,VALID,103.337,VALID,0,VALID,24.1014,VALID,70,VALID,1.66289,
2013-01-21, 02:57:04,VALID,1010.18,VALID,0,VALID,103.39,VALID,0,VALID,24.1422,VALID,112,VALID,0.557031,
2013-01-21, 02:58:04,VALID,1010.16,VALID,0,VALID,103.436,VALID,0,VALID,24.1422,VALID,82,VALID,1.24766,
2013-01-21, 02:59:04,VALID,1010.18,VALID,0,VALID,103.215,VALID,0.112112,VALID,24.1599,VALID,90,VALID,2.07773,
2013-01-21, 03:00:04,VALID,1010.18,VALID,0,VALID,102.978,VALID,0,VALID,24.1404,VALID,101,VALID,1.52617,
2013-01-21, 03:01:04,VALID,1010.2,VALID,0,VALID,102.978,VALID,0,VALID,24.1812,VALID,91,VALID,0.967578,
2013-01-21, 03:02:04,VALID,1010.2,VALID,0,VALID,103.016,VALID,0,VALID,24.2007,VALID,96,VALID,1.58906,
2013-01-21, 03:03:04,VALID,1010.24,VALID,0,VALID,103.047,VALID,0,VALID,24.1988,VALID,93,VALID,1.59805,
2013-01-21, 03:04:04,VALID,1010.25,VALID,0,VALID,103.085,VALID,0,VALID,24.2202,VALID,88,VALID,1.72422,
2013-01-21, 03:05:04,VALID,1010.26,VALID,0,VALID,103.108,VALID,0,VALID,24.2396,VALID,95,VALID,1.55078,
2013-01-21, 03:06:04,VALID,1010.25,VALID,0,VALID,103.154,VALID,0,VALID,24.2591,VALID,83,VALID,1.53945,
2013-01-21, 03:07:04,VALID,1010.26,VALID,0,VALID,103.115,VALID,0.112112,VALID,24.2378,VALID,89,VALID,1.74609,
2013-01-21, 03:08:04,VALID,1010.25,VALID,0,VALID,103.314,VALID,0,VALID,24.2378,VALID,76,VALID,1.47617,
2013-01-21, 03:09:04,VALID,1010.25,VALID,0,VALID,103.352,VALID,0,VALID,24.2768,VALID,72,VALID,1.9,
2013-01-21, 03:10:04,VALID,1010.27,VALID,0,VALID,103.298,VALID,0,VALID,24.2573,VALID,99,VALID,1.91211,
2013-01-21, 03:11:04,VALID,1010.29,VALID,0,VALID,103.481,VALID,0,VALID,24.2981,VALID,77,VALID,1.1418,
2013-01-21, 03:12:04,VALID,1010.29,VALID,0,VALID,103.542,VALID,0,VALID,24.2963,VALID,60,VALID,1.58203,
2013-01-21, 03:13:04,VALID,1010.26,VALID,0,VALID,103.573,VALID,0.112112,VALID,24.3176,VALID,97,VALID,1.84648,
2013-01-21, 03:14:04,VALID,1010.28,VALID,0,VALID,103.642,VALID,0.112112,VALID,24.3158,VALID,66,VALID,1.31406,
2013-01-21, 03:15:04,VALID,1010.27,VALID,0,VALID,103.733,VALID,0.112112,VALID,24.3352,VALID,77,VALID,1.55273,
2013-01-21, 03:16:04,VALID,1010.31,VALID,0,VALID,103.687,VALID,0,VALID,24.3566,VALID,82,VALID,0.715625,
2013-01-21, 03:17:04,VALID,1010.27,VALID,0,VALID,103.794,VALID,0,VALID,24.3761,VALID,57,VALID,1.64961,
2013-01-21, 03:18:04,VALID,1010.26,VALID,0,VALID,103.878,VALID,0,VALID,24.3547,VALID,84,VALID,1.79883,
2013-01-21, 03:19:04,VALID,1010.25,VALID,0,VALID,103.878,VALID,0,VALID,24.3937,VALID,105,VALID,1.50273,
2013-01-21, 03:20:04,VALID,1010.25,VALID,0,VALID,103.924,VALID,0,VALID,24.3937,VALID,92,VALID,0.962109,
2013-01-21, 03:21:04,VALID,1010.23,VALID,0,VALID,103.886,VALID,0,VALID,24.415,VALID,102,VALID,1.63945,
2013-01-21, 03:22:05,VALID,1010.22,VALID,0,VALID,103.855,VALID,0,VALID,24.4327,VALID,75,VALID,1.68086,
2013-01-21, 03:23:05,VALID,1010.18,VALID,0,VALID,103.848,VALID,0.112112,VALID,24.4345,VALID,87,VALID,1.50156,
2013-01-21, 03:24:05,VALID,1010.19,VALID,0,VALID,103.886,VALID,0,VALID,24.4327,VALID,101,VALID,1.70859,
2013-01-21, 03:25:05,VALID,1010.2,VALID,0,VALID,103.832,VALID,0,VALID,24.4717,VALID,111,VALID,1.14688,
2013-01-21, 03:26:05,VALID,1010.17,VALID,0,VALID,103.87,VALID,0.112112,VALID,24.5125,VALID,109,VALID,0.825391,
2013-01-21, 03:27:05,VALID,1010.19,VALID,0,VALID,103.802,VALID,0,VALID,24.5106,VALID,121,VALID,0.871094,
2013-01-21, 03:28:05,VALID,1010.19,VALID,0,VALID,103.787,VALID,0,VALID,24.5515,VALID,125,VALID,0.799219,
2013-01-21, 03:29:05,VALID,1010.19,VALID,0,VALID,103.68,VALID,0.112112,VALID,24.571,VALID,91,VALID,1.64063,
2013-01-21, 03:30:05,VALID,1010.17,VALID,0,VALID,103.588,VALID,0,VALID,24.5691,VALID,123,VALID,0.348437,
2013-01-21, 03:31:05,VALID,1010.21,VALID,0,VALID,103.573,VALID,0.112112,VALID,24.5691,VALID,123,VALID,0.35,
2013-01-21, 03:32:05,VALID,1010.19,VALID,0,VALID,103.52,VALID,0,VALID,24.5905,VALID,113,VALID,1.21523,
2013-01-21, 03:33:05,VALID,1010.23,VALID,0,VALID,103.581,VALID,0.112112,VALID,24.5886,VALID,118,VALID,1.44531,
2013-01-21, 03:34:05,VALID,1010.23,VALID,0,VALID,103.642,VALID,0,VALID,24.6099,VALID,100,VALID,0.576172,
2013-01-21, 03:35:05,VALID,1010.25,VALID,0,VALID,103.535,VALID,0.112112,VALID,24.6099,VALID,116,VALID,1.51875,
2013-01-21, 03:36:05,VALID,1010.28,VALID,0,VALID,103.428,VALID,0,VALID,24.5886,VALID,104,VALID,1.20547,
2013-01-21, 03:37:05,VALID,1010.28,VALID,0,VALID,103.291,VALID,0,VALID,24.6276,VALID,102,VALID,0.669531,
2013-01-21, 03:38:05,VALID,1010.33,VALID,0,VALID,103.268,VALID,0,VALID,24.6276,VALID,88,VALID,0.603906,
2013-01-21, 03:39:05,VALID,1010.34,VALID,0,VALID,103.245,VALID,0,VALID,24.6684,VALID,88,VALID,0.557422,
2013-01-21, 03:40:05,VALID,1010.36,VALID,0,VALID,103.077,VALID,0,VALID,24.6489,VALID,103,VALID,0.823828,
2013-01-21, 03:41:05,VALID,1010.34,VALID,0,VALID,102.521,VALID,0,VALID,24.6294,VALID,104,VALID,1.7043,
2013-01-21, 03:42:05,VALID,1010.36,VALID,0,VALID,102.376,VALID,0,VALID,24.6684,VALID,93,VALID,1.29414,
2013-01-21, 03:43:05,VALID,1010.36,VALID,0,VALID,102.345,VALID,0,VALID,24.6684,VALID,113,VALID,0.568359,
2013-01-21, 03:44:05,VALID,1010.35,VALID,0,VALID,101.834,VALID,0,VALID,24.6276,VALID,81,VALID,1.27227,
2013-01-21, 03:45:05,VALID,1010.36,VALID,0,VALID,102.063,VALID,0,VALID,24.6684,VALID,147,VALID,0.607422,
2013-01-21, 03:46:05,VALID,1010.32,VALID,0,VALID,102.185,VALID,0,VALID,24.6666,VALID,144,VALID,0.571875,
2013-01-21, 03:47:05,VALID,1010.32,VALID,0,VALID,101.75,VALID,0,VALID,24.6684,VALID,83,VALID,0.319922,